Location: O'Brien
(30.0517°N, 82.9900°W)
Time: 15:59:32
(UTC-05:00)

Hubble Space Telescope - Pass Details

Date: 28 October 2019
Orbit: 536 x 540 km, 28.5° (Epoch: 20 November)

Event Time Altitude Azimuth Distance (km) Brightness Sun altitude
Exits shadow 05:37:44 17° 155° (SSE) 1,375 3.0 -27.6°
Drops below altitude 10° 05:40:27 10° 114° (ESE) 1,777 4.2 -27.0°
Sets 05:43:18 0° 94° (E) 2,668 5.7 -26.4°
